Regional Weather Roundup
Issued by NWS

Home | Current Version | Previous Version | Text Only | Print | Product List | Glossary Off
Versions: 1 2 3 4 5 6 7 8 9 10 11 12 13 14 15 16 17 18 19 20 21 22 23 24 25 26 27 28 29 30 31 32 33 34 35 36 37 38 39 40 41 42 43 44 45 46 47 48 49 50

000
ASUS45 KPSR 300410
RWRAZ

ARIZONA HOURLY REGIONAL WEATHER ROUNDUP
NATIONAL WEATHER SERVICE PHOENIX AZ
900 PM MST WED JUL 29 2015

NOTE: FAIR INDICATES FEW OR NO CLOUDS BELOW 12,000 FEET WITH NO
SIGNIFICANT WEATHER AND/OR OBSTRUCTIONS TO VISIBILITY.

AZZ001>003-036-300500-
NORTHWEST ARIZONA

CITY           SKY/WX    TMP DP  RH WIND       PRES   REMARKS
BULLHEAD CITY  CLOUDY    99  55  23 S6        29.88R
KINGMAN        CLOUDY    87  54  32 W18G26    30.07S
$$

AZZ004>008-015-016-018-300500-
NORTH CENTRAL ARIZONA

CITY           SKY/WX    TMP DP  RH WIND       PRES   REMARKS
GRAND CANYON   MOCLDY    76  44  32 SE12      30.34R
WILLIAMS       CLOUDY    72  54  53 S16G23    30.42R
PRESCOTT       CLOUDY    77  57  50 SW8       30.25R
FLAGSTAFF      CLOUDY    67  50  54 SE5       30.41R
PAYSON         CLOUDY    66  61  82 S6        30.33R
PAGE           PTCLDY    88  46  23 S17G29    30.11R
$$

AZZ009>014-017-300500-
NORTHEAST ARIZONA

CITY           SKY/WX    TMP DP  RH WIND       PRES   REMARKS
WINSLOW        CLOUDY    71  62  73 S8        30.29R
SAINT JOHNS    CLOUDY    65  61  87 CALM      30.33R
SHOW LOW       CLOUDY    59  54  82 CALM      30.38R
$$

AZZ023-300500-
GREATER PHOENIX AREA

CITY           SKY/WX    TMP DP  RH WIND       PRES   REMARKS
PHOENIX        CLOUDY    91  59  33 E12       29.95R
LUKE AFB       CLOUDY    93  57  29 E14G22    29.94R
DEER VALLEY    CLOUDY    88  58  36 E13G20    29.97R
SCOTTSDALE     CLOUDY    88  57  34 E6        30.00R
MESA-GATEWAY   MOCLDY    88  61  40 E15       29.99F
CHANDLER       MOCLDY    88  63  42 NE16      29.97S
$$

AZZ027-028-300500-
SOUTHWEST MARICOPA COUNTY AND PINAL COUNTY

CITY           SKY/WX    TMP DP  RH WIND       PRES   REMARKS
CASA GRANDE    CLOUDY    84  61  45 E16       29.98S
$$

AZZ503-504-507>509-300500-
SOUTHEAST ARIZONA

CITY           SKY/WX    TMP DP  RH WIND       PRES   REMARKS
TUCSON         CLOUDY    77  68  73 NE8       30.10F
DAVIS-MONTHAN  CLOUDY    75  67  75 E14       30.10R
NOGALES        MOCLDY    71  65  81 E3        30.17R
SIERRA VISTA   CLOUDY    67  63  88 SW6       30.26R
DOUGLAS          N/A    N/A N/A N/A MISG      30.19R
SAFFORD        CLOUDY    77  62  59 NW12      30.14R
$$

AZZ020-021-025-026-031-300500-
SOUTHWEST ARIZONA

CITY           SKY/WX    TMP DP  RH WIND       PRES   REMARKS
YUMA           MOCLDY    96  65  35 SW9       29.86R
$$

CAZ031-033-041-043-047-048-061-300500-
SOUTHERN CALIFORNIA

CITY           SKY/WX    TMP DP  RH WIND       PRES   REMARKS
DOWNTOWN L.A.  CLEAR     70  63  78 CALM      29.95R
L.A. AIRPORT   PTCLDY    69  64  84 W8        29.96R
SAN DIEGO      MOCLDY    72  63  73 NW7       29.97R
BURBANK        CLEAR     73  61  65 S8        29.96R
ONTARIO        PTCLDY    76  62  62 W7        29.96R
RIVERSIDE      CLEAR     77  63  61 W8        29.96R
PALM SPRINGS   CLOUDY    98  66  34 E6        29.88R HX 101
EL CENTRO NAS  MOCLDY    93  65  39 SE7       29.85R
IMPERIAL       PTCLDY    96  64  34 SE9       29.83R
BLYTHE         CLOUDY    98  63  31 E6        29.87R HX 100
NEEDLES        CLOUDY    98  54  22 NW13      29.89R
$$

NVZ020-UTZ003-300500-
SOUTHERN NEVADA-UTAH

CITY           SKY/WX    TMP DP  RH WIND       PRES   REMARKS
LAS VEGAS      CLOUDY    90  52  27 S10       29.92R
SALT LAKE CITY PTCLDY    76  40  27 W3        30.22R
$$

NMZ009-TXZ055-300500-
NEW MEXICO-WEST TEXAS

CITY           SKY/WX    TMP DP  RH WIND       PRES   REMARKS
ALBUQUERQUE    CLOUDY    68  59  73 SE10      30.35R
EL PASO        CLOUDY    76  66  71 N15       30.15R
$$


........................KEY........................
SKY/WX - SKY CONDITION/WEATHER
TMP    - TEMPERATURE IN FAHRENHEIT
DP     - DEW POINT IN FAHRENHEIT
RH     - RELATIVE HUMIDITY IN PERCENT
WIND   - DIRECTION AND SPEED IN MILES PER HOUR (MPH)
VRB    - VARIABLE WIND DIRECTION
PRES   - MEAN SEA LEVEL PRESSURE IN INCHES OF MERCURY
         F - FALLING PRESSURE   R - RISING PRESSURE
         S - STEADY PRESSURE
VSB    - VISIBILITY IN MILES
HX     - HEAT INDEX IN FAHRENHEIT
WCI    - WIND CHILL INDEX IN FAHRENHEIT
TC     - TEMPERATURE IN CELSIUS WHICH IS ALSO KNOWN AS
         TEMPERATURE IN CENTIGRADE
AFB    - AIR FORCE BASE
         LUKE AFB IS LUKE AIR FORCE BASE
         DAVIS-MONTHAN IS DAVIS-MONTHAN AIR FORCE BASE
NAS    - NAVAL AIR STATION
         EL CENTRO NAS IS EL CENTRO NAVAL AIR STATION
N/A    - NOT AVAILABLE



USA.gov is the U.S. government's official web portal to all federal, state and local government web resources and services.